Location: Caltech
(34.1382°N, 118.1253°W)
Time: 20:52:46
(UTC-08:00)

ADEOS II - Visible Passes

Search period start: 21 November 2014 00:00
Search period end: 01 December 2014 00:00
Orbit: 801 x 803 km, 98.3° (Epoch: 20 November)

Date Brightness Start Highest point End Pass type
(mag) Time Alt. Az. Time Alt. Az. Time Alt. Az.
21 Nov 5.0 04:37:50 10° NE 04:41:11 17° E 04:44:31 10° SE visible
21 Nov 3.3 17:31:54 10° S 17:36:55 46° W 17:41:58 10° NNW visible
22 Nov 2.1 05:49:54 10° NNE 05:55:10 86° WNW 06:00:25 10° SSW visible
22 Nov 2.2 17:05:35 10° SSE 17:10:50 85° WSW 17:16:08 10° NNW visible
23 Nov 3.0 05:24:00 10° NNE 05:29:07 52° E 05:34:12 10° S visible
23 Nov 5.2 18:21:56 10° SW 18:24:52 15° W 18:27:50 10° WNW visible
24 Nov 4.2 04:58:28 10° NE 05:02:58 28° E 05:07:26 10° SSE visible
24 Nov 4.3 17:54:12 10° SSW 17:58:38 28° W 18:03:05 10° NW visible
25 Nov 5.1 04:33:41 10° ENE 04:36:44 16° E 04:39:46 10° SE visible
25 Nov 3.1 17:27:24 10° S 17:32:29 50° W 17:37:36 10° NNW visible
26 Nov 2.2 05:45:28 10° NNE 05:50:45 87° ESE 05:56:00 10° SSW visible
27 Nov 3.2 05:19:37 10° NNE 05:24:41 47° E 05:29:43 10° S visible
27 Nov 5.1 18:17:10 10° SW 18:20:25 17° W 18:23:41 10° NW visible
28 Nov 4.3 04:54:10 10° NE 04:58:31 26° E 05:02:51 10° SSE visible
28 Nov 4.2 17:49:37 10° SSW 17:54:11 30° W 17:58:46 10° NW visible
29 Nov 5.2 04:29:34 10° ENE 04:32:16 14° E 04:34:57 10° ESE visible
29 Nov 2.2 06:07:10 10° N 06:12:19 57° WNW 06:17:26 10° SSW visible
29 Nov 3.0 17:22:55 10° S 17:28:02 55° W 17:33:12 10° NNW visible
30 Nov 2.2 05:41:03 10° NNE 05:46:19 80° ESE 05:51:34 10° S visible
